New Cumberland, PA

2:25 PM EST on February 26, 2017 (GMT -0500)
Capital City

Weather History for KCXY - July, 2013

Change the Weather History Date:

Tuesday, July 9, 2013

  Actual Average Record
Temperature  
Mean Temperature 76 °F -  
Max Temperature 82 °F 82 °F 103 °F (1936)
Min Temperature 70 °F 62 °F 53 °F (1963)
Cooling Degree Days 11    
Growing Degree Days 26 (Base 50)    
Moisture  
Dew Point 70 °F    
Average Humidity 82    
Maximum Humidity 94    
Minimum Humidity 69    
Precipitation  
Precipitation 0.34 in - - ()
Sea Level Pressure  
Sea Level Pressure 30.06 in    
Wind  
Wind Speed 3 mph (WSW)    
Max Wind Speed 17 mph    
Max Gust Speed 24 mph    
Visibility 8 miles    
Events Rain    
Averages and records for this station are not official NWS values.
T = Trace of Precipitation, MM = Missing Value Source: NWS Daily Summary

Daily Weather History Graph

Daily Weather History Graph

Search for Another Location

Airport or City:

Trip Planner

Search our weather history database for the weather conditions in past years. The results will help you decide how hot, cold, wet, or windy it might be!

Date:

Astronomy

Jul. 09, 2013 Rise Set
Actual Time 5:46 AM EDT 8:38 PM EDT
Civil Twilight 5:13 AM EDT 9:11 PM EDT
Nautical Twilight 4:33 AM EDT 9:51 PM EDT
Astronomical Twilight 3:45 AM EDT 10:38 PM EDT
Moon 7:08 AM EDT (7/9) 9:14 PM EDT (7/9)
Length of Visible Light 15h 57m
Length of Day
14h 52m
New Moon, 2% of the Moon is Illuminated
Jul 9
New Moon
Jul 15
First Quarter
Jul 22
Full
Jul 29
Last Quarter
Aug 6
New

Hourly Weather History & Observations

Time (EDT) Temp. Heat Index Dew Point Humidity Pressure Visibility Wind Dir Wind Speed Gust Speed Precip Events Conditions
12:56 AM 73.0 °F - 68.0 °F 84% 30.08 in 10.0 mi Calm Calm - N/A   Scattered Clouds
1:56 AM 71.1 °F - 66.9 °F 87% 30.07 in 9.0 mi Calm Calm - N/A   Partly Cloudy
2:56 AM 70.0 °F - 66.9 °F 90% 30.06 in 8.0 mi Calm Calm - N/A   Clear
3:56 AM 71.1 °F - 66.9 °F 87% 30.06 in 9.0 mi Calm Calm - N/A   Partly Cloudy
4:56 AM 70.0 °F - 66.9 °F 90% 30.07 in 8.0 mi Calm Calm - N/A   Clear
5:56 AM 71.1 °F - 68.0 °F 90% 30.08 in 7.0 mi Calm Calm - N/A   Clear
6:56 AM 72.0 °F - 68.0 °F 87% 30.08 in 6.0 mi Calm Calm - N/A   Partly Cloudy
7:56 AM 73.0 °F - 68.0 °F 84% 30.09 in 6.0 mi WNW 3.5 mph - N/A   Haze
8:56 AM 75.0 °F - 69.1 °F 82% 30.09 in 7.0 mi West 5.8 mph - 0.00 in Rain Light Rain
9:56 AM 78.1 °F - 70.0 °F 76% 30.08 in 7.0 mi Calm Calm - 0.00 in   Clear
10:56 AM 79.0 °F - 71.1 °F 77% 30.09 in 7.0 mi West 4.6 mph - N/A   Mostly Cloudy
11:56 AM 81.0 °F 84.4 °F 70.0 °F 69% 30.08 in 7.0 mi West 3.5 mph - N/A   Mostly Cloudy
12:56 PM 82.0 °F 86.3 °F 71.1 °F 69% 30.07 in 8.0 mi South 8.1 mph - N/A   Scattered Clouds
1:08 PM 78.8 °F - 69.8 °F 74% 30.09 in 1.5 mi WNW 17.3 mph 24.2 mph 0.09 in Rain Light Rain
1:10 PM 75.2 °F - 69.8 °F 83% 30.09 in 0.8 mi West 17.3 mph 24.2 mph 0.17 in Rain Heavy Rain
1:24 PM 73.4 °F - 71.6 °F 94% 30.09 in 8.0 mi Variable 3.5 mph - 0.34 in Rain Light Rain
1:56 PM 75.0 °F - 70.0 °F 84% 30.08 in 10.0 mi SW 4.6 mph - 0.34 in   Overcast
2:56 PM 77.0 °F - 72.0 °F 84% 30.07 in 8.0 mi WSW 6.9 mph - N/A   Overcast
3:56 PM 75.0 °F - 69.1 °F 82% 30.06 in 8.0 mi SW 9.2 mph - 0.00 in   Overcast
4:56 PM 75.0 °F - 69.1 °F 82% 30.04 in 9.0 mi WSW 3.5 mph - N/A   Overcast
5:56 PM 78.1 °F - 70.0 °F 76% 30.02 in 10.0 mi WSW 4.6 mph - N/A   Mostly Cloudy
6:56 PM 78.1 °F - 70.0 °F 76% 30.00 in 10.0 mi Calm Calm - N/A   Overcast
7:56 PM 78.1 °F - 70.0 °F 76% 30.01 in 10.0 mi Calm Calm - N/A   Clear
8:56 PM 75.9 °F - 72.0 °F 87% 30.01 in 9.0 mi Calm Calm - N/A   Clear
9:56 PM 75.0 °F - 71.1 °F 87% 30.03 in 8.0 mi Calm Calm - N/A   Mostly Cloudy
10:56 PM 75.9 °F - 71.1 °F 85% 30.02 in 9.0 mi Calm Calm - N/A   Overcast
11:56 PM 75.9 °F - 71.1 °F 85% 30.00 in 8.0 mi East 5.8 mph - N/A   Mostly Cloudy